Location: Chandolas
(44.4033°N, 4.2533°E)
Time: 18:24:07
(UTC+00:00)

STARLINK-44 - Pass Details

Date: 15 November 2019
Orbit: 529 x 530 km, 53.0° (Epoch: 10 December)

Event Time Altitude Azimuth Distance (km) Brightness Sun altitude
Rises 05:56:59 0° 227° (SW) 2,652 6.8 -7.7°
Reaches altitude 10° 05:59:11 10° 224° (SW) 1,766 6.0 -7.3°
Maximum altitude 06:03:10 66° 142° (SE) 577 4.0 -6.7°
Drops below altitude 10° 06:07:09 10° 60° (ENE) 1,774 6.8 -6.0°
Sets 06:09:23 0° 58° (ENE) 2,666 7.7 -5.6°
